STSAT-3

Last updated on Fri Dec 19 2025 00:03:36 GMT+0000 (Coordinated Universal Time)

1 39422U 13066G 25352.59049549 .00002920 00000+0 23048-3 0 9990 2 39422 97.6008 320.8373 0013113 294.3059 65.6795 15.01424527657095
UTC large
Height (km)
Speed (km/s)
/
Latitude / Longitude
Inclination (degrees)
Orbital Period (minutes)
Azimuth
Elevation
Range (km)
Doppler Factor

Next 0 passes for location: London (51.5072 / 0.1276)

Sorry there are no passes over London.